Location: Ash Shall?l al Awwal
(24.0167°N, 32.8667°E)
Time: 03:53:37
(UTC+00:00)

Cosmos 2333 Rocket - Pass Details

Date: 02 March 2021
Orbit: 837 x 864 km, 70.8° (Epoch: 12 April)

Event Time Altitude Azimuth Distance (km) Brightness Sun altitude
Rises 17:10:34 0° 194° (SSW) 3,375 5.5 -18.8°
Reaches altitude 10° 17:13:00 10° 192° (SSW) 2,445 4.7 -19.3°
Maximum altitude 17:18:36 78° 107° (ESE) 862 2.0 -20.6°
Drops below altitude 10° 17:24:16 10° 21° (NNE) 2,470 4.4 -21.9°
Enters shadow 17:26:03 - 21° (NNE) 3,149 5.0 -22.3°
